• In Uzbekistan
  • List of Countries
  • For 7 days
  • Water Temperature
  • Satellite Maps
  • Weather Map
  • Weather Widgets
  • user-avatar
    Login

    Hourly Weather Kapan

    Today, 21 July, Sunday

    Time Temperature Precipitation Wind Pressure Humidity
    00:00 +21°C° 0 mm 2 mps 686 mmHg 61%
    01:00 +23°C° 0 mm 2 mps 686 mmHg 61%
    02:00 +23°C° 0 mm 2 mps 686 mmHg 60%
    03:00 +23°C° 0 mm 2 mps 686 mmHg 59%
    04:00 +23°C° 0 mm 2 mps 686 mmHg 58%
    05:00 +24°C° 0 mm 1 mps 686 mmHg 58%
    06:00 +24°C° 0 mm 1 mps 687 mmHg 58%
    07:00 +26°C° 0 mm 2 mps 687 mmHg 53%
    08:00 +27°C° 0 mm 2 mps 687 mmHg 48%
    09:00 +29°C° 0 mm 2 mps 687 mmHg 43%
    10:00 +30°C° 0 mm 3 mps 686 mmHg 40%
    11:00 +31°C° 0 mm 3 mps 686 mmHg 36%
    12:00 +34°C° 0 mm 3 mps 686 mmHg 33%
    13:00 +35°C° 0 mm 3 mps 686 mmHg 32%
    14:00 +35°C° 0 mm 3 mps 685 mmHg 31%
    15:00 +36°C° 0 mm 3 mps 684 mmHg 30%
    16:00 +35°C° 0 mm 3 mps 684 mmHg 32%
    17:00 +34°C° 0 mm 3 mps 684 mmHg 35%
    18:00 +33°C° 0 mm 3 mps 684 mmHg 38%
    19:00 +30°C° 0 mm 2 mps 684 mmHg 43%
    20:00 +28°C° 0 mm 2 mps 683 mmHg 47%
    21:00 +26°C° 0 mm 1 mps 683 mmHg 52%
    22:00 +25°C° 0 mm 2 mps 683 mmHg 52%
    23:00 +25°C° 0 mm 2 mps 683 mmHg 53%

    Tomorrow, 22 July, Monday

    Time Temperature Precipitation Wind Pressure Humidity
    00:00 +25°C° 0 mm 2 mps 683 mmHg 53%
    01:00 +25°C° 0 mm 2 mps 683 mmHg 52%
    02:00 +25°C° 0 mm 1 mps 683 mmHg 51%
    03:00 +25°C° 0 mm 1 mps 683 mmHg 50%
    04:00 +26°C° 0 mm 1 mps 683 mmHg 49%
    05:00 +26°C° 0 mm 1 mps 683 mmHg 49%
    06:00 +27°C° 0 mm 1 mps 683 mmHg 48%
    07:00 +29°C° 0 mm 1 mps 683 mmHg 44%
    08:00 +30°C° 0 mm 1 mps 683 mmHg 39%
    09:00 +32°C° 0 mm 2 mps 684 mmHg 35%
    10:00 +35°C° 0 mm 2 mps 683 mmHg 33%
    11:00 +36°C° 0 mm 3 mps 683 mmHg 31%
    12:00 +37°C° 0 mm 3 mps 683 mmHg 28%
    13:00 +37°C° 0 mm 3 mps 683 mmHg 29%
    14:00 +37°C° 0 mm 4 mps 682 mmHg 30%
    15:00 +37°C° 0 mm 4 mps 682 mmHg 31%
    16:00 +36°C° 0 mm 4 mps 681 mmHg 35%
    17:00 +35°C° 0 mm 4 mps 681 mmHg 39%
    18:00 +33°C° 0 mm 3 mps 681 mmHg 42%
    19:00 +30°C° 0 mm 3 mps 681 mmHg 50%
    20:00 +28°C° 0 mm 2 mps 681 mmHg 58%
    21:00 +26°C° 0 mm 1 mps 681 mmHg 65%
    22:00 +25°C° 0 mm 1 mps 681 mmHg 66%
    23:00 +25°C° 0 mm 1 mps 681 mmHg 67%

    Day after tomorrow, 23 July, Tuesday

    Time Temperature Precipitation Wind Pressure Humidity
    00:00 +25°C° 0 mm 1 mps 681 mmHg 68%
    01:00 +24°C° 0 mm 1 mps 681 mmHg 69%
    02:00 +24°C° 0 mm 1 mps 681 mmHg 71%
    03:00 +23°C° 0 mm 1 mps 681 mmHg 72%
    04:00 +24°C° 0 mm 1 mps 681 mmHg 71%
    05:00 +24°C° 0 mm 1 mps 681 mmHg 69%
    06:00 +25°C° 0 mm 1 mps 682 mmHg 67%
    07:00 +26°C° 0 mm 1 mps 682 mmHg 61%
    08:00 +28°C° 0 mm 2 mps 682 mmHg 54%
    09:00 +30°C° 0 mm 3 mps 682 mmHg 48%
    10:00 +31°C° 0 mm 3 mps 682 mmHg 44%
    11:00 +33°C° 0 mm 3 mps 682 mmHg 41%
    12:00 +34°C° 0 mm 4 mps 682 mmHg 37%
    13:00 +35°C° 0 mm 4 mps 681 mmHg 36%
    14:00 +35°C° 0 mm 4 mps 681 mmHg 35%
    15:00 +35°C° 0 mm 4 mps 680 mmHg 35%
    16:00 +34°C° 0 mm 4 mps 680 mmHg 38%
    17:00 +33°C° 0 mm 3 mps 680 mmHg 42%
    18:00 +31°C° 0 mm 3 mps 680 mmHg 46%
    19:00 +29°C° 0 mm 3 mps 680 mmHg 51%
    20:00 +27°C° 0 mm 2 mps 680 mmHg 57%
    21:00 +25°C° 0 mm 1 mps 680 mmHg 62%
    22:00 +24°C° 0 mm 1 mps 680 mmHg 64%
    23:00 +24°C° 0 mm 1 mps 680 mmHg 66%

    24 July, Wednesday

    Time Temperature Precipitation Wind Pressure Humidity
    00:00 +23°C° 0 mm 1 mps 680 mmHg 67%
    01:00 +23°C° 0 mm 1 mps 680 mmHg 67%
    02:00 +23°C° 0 mm 1 mps 680 mmHg 67%
    03:00 +21°C° 0 mm 0 mps 680 mmHg 67%
    04:00 +22°C° 0 mm 0 mps 680 mmHg 66%
    05:00 +22°C° 0 mm 0 mps 681 mmHg 65%
    06:00 +23°C° 0 mm 0 mps 681 mmHg 64%
    07:00 +26°C° 0 mm 1 mps 681 mmHg 59%
    08:00 +28°C° 0 mm 2 mps 682 mmHg 54%
    09:00 +29°C° 0 mm 2 mps 682 mmHg 49%
    10:00 +31°C° 0 mm 2 mps 682 mmHg 45%
    11:00 +33°C° 0 mm 3 mps 682 mmHg 41%
    12:00 +35°C° 0 mm 3 mps 682 mmHg 37%
    13:00 +35°C° 0 mm 3 mps 681 mmHg 35%
    14:00 +36°C° 0 mm 3 mps 681 mmHg 33%
    15:00 +36°C° 0 mm 3 mps 681 mmHg 30%
    16:00 +35°C° 0 mm 3 mps 681 mmHg 33%
    17:00 +34°C° 0 mm 3 mps 681 mmHg 37%
    18:00 +33°C° 0 mm 3 mps 680 mmHg 40%
    19:00 +30°C° 0 mm 2 mps 680 mmHg 45%
    20:00 +28°C° 0 mm 2 mps 681 mmHg 50%
    21:00 +26°C° 0 mm 1 mps 681 mmHg 55%
    22:00 +25°C° 0 mm 1 mps 681 mmHg 55%
    23:00 +25°C° 0 mm 1 mps 681 mmHg 56%

    25 July, Thursday

    Time Temperature Precipitation Wind Pressure Humidity
    00:00 +25°C° 0 mm 2 mps 681 mmHg 56%
    01:00 +25°C° 0 mm 1 mps 681 mmHg 55%
    02:00 +24°C° 0 mm 1 mps 681 mmHg 54%
    03:00 +24°C° 0 mm 1 mps 681 mmHg 53%
    04:00 +25°C° 0 mm 1 mps 681 mmHg 52%
    05:00 +25°C° 0 mm 1 mps 681 mmHg 52%
    06:00 +26°C° 0 mm 1 mps 682 mmHg 51%
    07:00 +28°C° 0 mm 1 mps 682 mmHg 48%
    08:00 +29°C° 0 mm 2 mps 682 mmHg 45%
    09:00 +31°C° 0 mm 2 mps 683 mmHg 41%
    10:00 +33°C° 0 mm 3 mps 682 mmHg 38%
    11:00 +34°C° 0 mm 3 mps 682 mmHg 35%
    12:00 +36°C° 0 mm 4 mps 682 mmHg 32%
    13:00 +36°C° 0 mm 4 mps 681 mmHg 32%
    14:00 +36°C° 0 mm 4 mps 681 mmHg 31%
    15:00 +37°C° 0 mm 4 mps 680 mmHg 30%
    16:00 +35°C° 0 mm 4 mps 680 mmHg 33%
    17:00 +34°C° 0 mm 4 mps 680 mmHg 36%
    18:00 +33°C° 0 mm 4 mps 679 mmHg 39%
    19:00 +30°C° 0 mm 3 mps 679 mmHg 44%
    20:00 +27°C° 0 mm 2 mps 680 mmHg 48%
    21:00 +25°C° 0 mm 1 mps 680 mmHg 53%
    22:00 +25°C° 0 mm 1 mps 680 mmHg 55%
    23:00 +24°C° 0 mm 1 mps 680 mmHg 56%

    26 July, Friday

    Time Temperature Precipitation Wind Pressure Humidity
    00:00 +23°C° 0 mm 1 mps 679 mmHg 58%
    01:00 +23°C° 0 mm 1 mps 679 mmHg 61%
    02:00 +22°C° 0 mm 1 mps 679 mmHg 63%
    03:00 +21°C° 0 mm 1 mps 679 mmHg 66%
    04:00 +22°C° 0 mm 1 mps 679 mmHg 65%
    05:00 +22°C° 0 mm 1 mps 680 mmHg 64%
    06:00 +23°C° 0 mm 1 mps 680 mmHg 63%
    07:00 +24°C° 0 mm 2 mps 680 mmHg 58%
    08:00 +26°C° 0 mm 2 mps 680 mmHg 53%
    09:00 +27°C° 0 mm 3 mps 680 mmHg 47%
    10:00 +28°C° 0 mm 3 mps 680 mmHg 45%
    11:00 +29°C° 0 mm 3 mps 680 mmHg 43%
    12:00 +30°C° 0 mm 4 mps 680 mmHg 40%
    13:00 +32°C° 0 mm 4 mps 679 mmHg 39%
    14:00 +33°C° 0 mm 4 mps 679 mmHg 38%
    15:00 +33°C° 0 mm 4 mps 678 mmHg 37%
    16:00 +32°C° 0 mm 4 mps 678 mmHg 41%
    17:00 +30°C° 0 mm 4 mps 678 mmHg 45%
    18:00 +29°C° 0 mm 4 mps 678 mmHg 49%
    19:00 +27°C° 0 mm 3 mps 678 mmHg 56%
    20:00 +25°C° 0 mm 2 mps 678 mmHg 64%
    21:00 +24°C° 0 mm 1 mps 678 mmHg 72%
    22:00 +23°C° 0 mm 1 mps 678 mmHg 74%
    23:00 +23°C° 0 mm 1 mps 678 mmHg 75%
    Show more